| time (UTC) | temp F | wind direction | speed knots | gust knots | rain 1hr in | rain 24hr in | rain mn in | humidity % | barometer mb |
| 20260905193516 | 73 | 23 | 1.7 | 5.2 | 0.00 | 0.00 | 0.00 | 33 | 1029.8 |
| 20260905192516 | 73 | 45 | 1.7 | 5.2 | 0.00 | 0.00 | 0.00 | 34 | 1029.8 |
| 20260905191516 | 72 | 23 | 4.3 | 9.6 | 0.00 | 0.00 | 0.00 | 35 | 1029.8 |
| 20260905190516 | 71 | 23 | 3.5 | 7.8 | 0.00 | 0.00 | 0.00 | 36 | 1029.3 |
| 20260905185536 | 71 | 23 | 1.7 | 5.2 | 0.00 | 0.00 | 0.00 | 36 | 1029.3 |
| 20260905184516 | 72 | 68 | 2.6 | 7.8 | 0.00 | 0.00 | 0.00 | 35 | 1029.2 |
| 20260905183515 | 72 | 23 | 2.6 | 7.0 | 0.00 | 0.00 | 0.00 | 35 | 1029.3 |
| 20260905182516 | 72 | 45 | 2.6 | 7.8 | 0.00 | 0.00 | 0.00 | 33 | 1029.3 |
| 20260905181516 | 72 | 113 | 1.7 | 6.1 | 0.00 | 0.00 | 0.00 | 32 | 1029.4 |
| 20260905180516 | 72 | 338 | 0.9 | 5.2 | 0.00 | 0.00 | 0.00 | 32 | 1029.9 |
| 20260905175515 | 71 | 0 | 2.6 | 7.0 | 0.00 | 0.00 | 0.00 | 32 | 1029.4 |
| 20260905174516 | 70 | 338 | 3.5 | 7.8 | 0.00 | 0.00 | 0.00 | 32 | 1029.4 |
| 20260905173516 | 72 | 0 | 1.7 | 4.3 | 0.00 | 0.00 | 0.00 | 32 | 1030.4 |
| 20260905172516 | 71 | 338 | 3.5 | 8.7 | 0.00 | 0.00 | 0.00 | 33 | 1029.7 |
| 20260905171516 | 71 | 338 | 3.5 | 8.7 | 0.00 | 0.00 | 0.00 | 33 | 1029.7 |
| 20260905170515 | 71 | 23 | 2.6 | 7.8 | 0.00 | 0.00 | 0.00 | 34 | 1029.6 |
| 20260905165515 | 69 | 68 | 1.7 | 4.3 | 0.00 | 0.00 | 0.00 | 32 | 1029.0 |
| 20260905164515 | 69 | 113 | 0.9 | 3.5 | 0.00 | 0.00 | 0.00 | 32 | 1028.9 |
| 20260905163515 | 69 | 293 | 2.6 | 5.2 | 0.00 | 0.00 | 0.00 | 35 | 1029.7 |
| 20260905162515 | 67 | 270 | 1.7 | 6.1 | 0.00 | 0.00 | 0.00 | 36 | 1028.9 |
| 20260905161515 | 67 | 293 | 4.3 | 9.6 | 0.00 | 0.00 | 0.00 | 36 | 1028.8 |
| 20260905160515 | 66 | 270 | 3.5 | 7.8 | 0.00 | 0.00 | 0.00 | 37 | 1028.8 |
| 20260905155515 | 66 | 270 | 4.3 | 11.3 | 0.00 | 0.00 | 0.00 | 37 | 1029.0 |
| 20260905154538 | 65 | 270 | 5.2 | 9.6 | 0.00 | 0.00 | 0.00 | 37 | 1028.2 |
| 20260905153517 | 65 | 270 | 5.2 | 11.3 | 0.00 | 0.00 | 0.00 | 37 | 1028.4 |
| 20260905152517 | 65 | 248 | 3.5 | 7.8 | 0.00 | 0.00 | 0.00 | 38 | 1028.2 |
| 20260905151517 | 64 | 270 | 4.3 | 11.3 | 0.00 | 0.00 | 0.00 | 39 | 1028.1 |
| 20260905150517 | 64 | 270 | 3.5 | 7.8 | 0.00 | 0.00 | 0.00 | 40 | 1028.2 |
| 20260905145517 | 63 | 270 | 4.3 | 11.3 | 0.00 | 0.00 | 0.00 | 41 | 1027.8 |
| 20260905144517 | 62 | 248 | 4.3 | 12.2 | 0.00 | 0.00 | 0.00 | 42 | 1027.9 |
| 20260905143517 | 62 | 270 | 3.5 | 8.7 | 0.00 | 0.00 | 0.00 | 42 | 1027.9 |
| 20260905142557 | 61 | 248 | 4.3 | 12.2 | 0.00 | 0.00 | 0.00 | 43 | 1027.9 |
| 20260905141517 | 60 | 225 | 2.6 | 7.0 | 0.00 | 0.00 | 0.00 | 44 | 1027.1 |
| 20260905140517 | 60 | 225 | 2.6 | 7.8 | 0.00 | 0.00 | 0.00 | 45 | 1027.8 |
| 20260905135517 | 59 | 225 | 2.6 | 4.3 | 0.00 | 0.00 | 0.00 | 45 | 1027.8 |
| 20260905134517 | 59 | 225 | 2.6 | 7.0 | 0.00 | 0.00 | 0.00 | 45 | 1027.6 |
| 20260905133517 | 58 | 225 | 2.6 | 4.3 | 0.00 | 0.00 | 0.00 | 45 | 1028.2 |
| 20260905132517 | 58 | 225 | 2.6 | 5.2 | 0.00 | 0.00 | 0.00 | 45 | 1028.2 |
| 20260905131517 | 58 | 225 | 3.5 | 7.8 | 0.00 | 0.00 | 0.00 | 44 | 1028.1 |
| 20260905130517 | 58 | 225 | 2.6 | 5.2 | 0.00 | 0.00 | 0.00 | 44 | 1028.7 |
| 20260905125517 | 58 | 225 | 2.6 | 5.2 | 0.00 | 0.00 | 0.00 | 44 | 1028.6 |
| 20260905124517 | 58 | 248 | 1.7 | 7.0 | 0.00 | 0.00 | 0.00 | 44 | 1028.3 |
| 20260905123516 | 58 | 248 | 1.7 | 5.2 | 0.00 | 0.00 | 0.00 | 43 | 1028.4 |
| 20260905122517 | 59 | 270 | 1.7 | 4.3 | 0.00 | 0.00 | 0.00 | 42 | 1028.2 |
| 20260905121517 | 59 | 248 | 1.7 | 4.3 | 0.00 | 0.00 | 0.00 | 42 | 1028.2 |
| 20260905120516 | 59 | 270 | 1.7 | 3.5 | 0.00 | 0.00 | 0.00 | 42 | 1029.4 |
| 20260905115516 | 58 | 270 | 2.6 | 4.3 | 0.00 | 0.00 | 0.00 | 42 | 1029.4 |
| 20260905114516 | 58 | 225 | 1.7 | 3.5 | 0.00 | 0.00 | 0.00 | 42 | 1029.4 |
| 20260905113517 | 59 | 203 | 2.6 | 4.3 | 0.00 | 0.00 | 0.00 | 41 | 1028.8 |
| 20260905112536 | 59 | 248 | 1.7 | 4.3 | 0.00 | 0.00 | 0.00 | 41 | 1028.7 |
| 20260905111536 | 59 | 248 | 0.9 | 3.5 | 0.00 | 0.00 | 0.00 | 42 | 1028.8 |
| 20260905110537 | 59 | 270 | 2.6 | 5.2 | 0.00 | 0.00 | 0.00 | 42 | 1029.2 |
| 20260905105517 | 59 | 270 | 1.7 | 4.3 | 0.00 | 0.00 | 0.00 | 42 | 1029.2 |
| 20260905104536 | 59 | 270 | 2.6 | 4.3 | 0.00 | 0.00 | 0.00 | 42 | 1029.1 |
| 20260905103516 | 59 | 270 | 2.6 | 4.3 | 0.00 | 0.00 | 0.00 | 42 | 1028.5 |
| 20260905102516 | 59 | 248 | 1.7 | 5.2 | 0.00 | 0.00 | 0.00 | 43 | 1028.5 |
| 20260905101516 | 59 | 248 | 1.7 | 3.5 | 0.00 | 0.00 | 0.00 | 44 | 1028.4 |
| 20260905100516 | 59 | 225 | 1.7 | 3.5 | 0.00 | 0.00 | 0.00 | 43 | 1029.0 |
| 20260905095516 | 59 | 270 | 2.6 | 4.3 | 0.00 | 0.00 | 0.00 | 44 | 1029.0 |
| 20260905094516 | 60 | 248 | 1.7 | 2.6 | 0.00 | 0.00 | 0.00 | 44 | 1029.0 |
| 20260905093516 | 60 | 248 | 0.9 | 3.5 | 0.00 | 0.00 | 0.00 | 44 | 1029.6 |
| 20260905092516 | 60 | 270 | 0.9 | 2.6 | 0.00 | 0.00 | 0.00 | 45 | 1029.6 |
| 20260905091516 | 60 | 0.0 | 1.7 | 0.00 | 0.00 | 0.00 | 46 | 1029.6 | |
| 20260905090516 | 60 | 225 | 0.9 | 1.7 | 0.00 | 0.00 | 0.00 | 46 | 1029.7 |
| 20260905085516 | 59 | 135 | 0.9 | 1.7 | 0.00 | 0.00 | 0.00 | 47 | 1029.6 |
| 20260905084516 | 60 | 0.0 | 0.0 | 0.00 | 0.00 | 0.00 | 46 | 1029.4 | |
| 20260905083516 | 59 | 203 | 0.9 | 2.6 | 0.00 | 0.00 | 0.00 | 47 | 1030.7 |
| 20260905082536 | 59 | 158 | 1.7 | 2.6 | 0.00 | 0.00 | 0.00 | 48 | 1030.6 |
| 20260905081516 | 59 | 158 | 1.7 | 3.5 | 0.00 | 0.00 | 0.00 | 48 | 1030.6 |
| 20260905080516 | 59 | 135 | 1.7 | 3.5 | 0.00 | 0.00 | 0.00 | 47 | 1030.0 |
| 20260905075536 | 60 | 180 | 3.5 | 6.1 | 0.00 | 0.00 | 0.00 | 46 | 1030.5 |
| 20260905074536 | 60 | 180 | 2.6 | 4.3 | 0.00 | 0.00 | 0.00 | 45 | 1030.5 |
| 20260905073516 | 60 | 180 | 1.7 | 2.6 | 0.00 | 0.00 | 0.00 | 45 | 1029.5 |
| 20260905072516 | 60 | 180 | 1.7 | 2.6 | 0.00 | 0.00 | 0.00 | 45 | 1029.4 |
| 20260905071516 | 60 | 0.0 | 1.7 | 0.00 | 0.00 | 0.00 | 45 | 1029.2 | |
| 20260905070516 | 60 | 0.0 | 0.9 | 0.00 | 0.00 | 0.00 | 45 | 1029.2 | |
| 20260905065515 | 60 | 0.0 | 1.7 | 0.00 | 0.00 | 0.00 | 45 | 1029.3 | |
| 20260905064516 | 60 | 0.0 | 1.7 | 0.00 | 0.00 | 0.00 | 45 | 1029.4 | |
| 20260905063516 | 60 | 0.0 | 0.9 | 0.00 | 0.00 | 0.00 | 45 | 1028.8 | |
| 20260905062516 | 59 | 180 | 0.9 | 1.7 | 0.00 | 0.00 | 0.00 | 46 | 1028.2 |
| 20260905061515 | 59 | 180 | 0.9 | 1.7 | 0.00 | 0.00 | 0.00 | 46 | 1028.4 |
| 20260905060515 | 59 | 180 | 0.9 | 0.9 | 0.00 | 0.00 | 0.00 | 46 | 1027.7 |
| 20260905055536 | 59 | 0.0 | 1.7 | 0.00 | 0.00 | 0.00 | 46 | 1027.6 | |
| 20260905054517 | 60 | 135 | 0.9 | 1.7 | 0.00 | 0.00 | 0.00 | 46 | 1027.7 |
| 20260905053517 | 60 | 0.0 | 1.7 | 0.00 | 0.00 | 0.00 | 45 | 1027.7 | |
| 20260905052537 | 60 | 0 | 1.7 | 3.5 | 0.00 | 0.00 | 0.00 | 45 | 1027.6 |
| 20260905051516 | 60 | 0 | 3.5 | 6.1 | 0.00 | 0.00 | 0.00 | 45 | 1027.6 |
| 20260905050536 | 60 | 0 | 2.6 | 6.1 | 0.00 | 0.00 | 0.00 | 45 | 1026.9 |
| 20260905045516 | 60 | 0 | 3.5 | 7.0 | 0.00 | 0.00 | 0.00 | 45 | 1026.9 |
| 20260905044516 | 60 | 0 | 3.5 | 7.0 | 0.00 | 0.00 | 0.00 | 45 | 1027.0 |
| 20260905043516 | 60 | 0 | 2.6 | 7.0 | 0.00 | 0.00 | 0.00 | 46 | 1026.5 |
| 20260905042516 | 60 | 0 | 2.6 | 7.0 | 0.00 | 0.00 | 0.00 | 47 | 1026.5 |
| 20260905041516 | 60 | 23 | 2.6 | 5.2 | 0.00 | 0.00 | 0.00 | 47 | 1026.6 |
| 20260905040536 | 61 | 0 | 2.6 | 5.2 | 0.00 | 0.00 | 0.00 | 47 | 1026.7 |
| 20260905035556 | 61 | 0.0 | 1.7 | 0.00 | 0.00 | 0.00 | 45 | 1026.8 | |
| 20260905034516 | 61 | 338 | 0.9 | 2.6 | 0.00 | 0.00 | 0.00 | 46 | 1027.0 |
| 20260905033516 | 62 | 23 | 1.7 | 3.5 | 0.00 | 0.00 | 0.00 | 45 | 1026.5 |
| 20260905032516 | 62 | 45 | 0.9 | 2.6 | 0.00 | 0.00 | 0.00 | 44 | 1026.5 |
| 20260905031516 | 62 | 23 | 0.9 | 4.3 | 0.00 | 0.00 | 0.00 | 44 | 1026.3 |
| 20260905030516 | 62 | 45 | 0.9 | 2.6 | 0.00 | 0.00 | 0.00 | 44 | 1025.6 |
| 20260905025536 | 62 | 45 | 1.7 | 6.1 | 0.00 | 0.00 | 0.00 | 44 | 1025.6 |
| 20260905024516 | 62 | 45 | 0.9 | 5.2 | 0.00 | 0.00 | 0.00 | 44 | 1025.6 |
| 20260905023516 | 62 | 45 | 0.9 | 2.6 | 0.00 | 0.00 | 0.00 | 44 | 1024.8 |
| 20260905022516 | 62 | 23 | 0.9 | 3.5 | 0.00 | 0.00 | 0.00 | 43 | 1024.7 |
| 20260905021516 | 62 | 23 | 0.9 | 2.6 | 0.00 | 0.00 | 0.00 | 43 | 1024.6 |
| 20260905020516 | 63 | 0.0 | 1.7 | 0.00 | 0.00 | 0.00 | 42 | 1024.7 | |
| 20260905015516 | 64 | 45 | 0.9 | 2.6 | 0.00 | 0.00 | 0.00 | 41 | 1024.5 |
| 20260905014516 | 64 | 23 | 0.9 | 2.6 | 0.00 | 0.00 | 0.00 | 40 | 1025.0 |
| 20260905013515 | 65 | 0.0 | 1.7 | 0.00 | 0.00 | 0.00 | 39 | 1025.1 | |
| 20260905012515 | 66 | 0.0 | 2.6 | 0.00 | 0.00 | 0.00 | 38 | 1025.1 | |
| 20260905011515 | 67 | 0.0 | 1.7 | 0.00 | 0.00 | 0.00 | 36 | 1025.7 | |
| 20260905010515 | 68 | 45 | 0.9 | 2.6 | 0.00 | 0.00 | 0.00 | 35 | 1026.2 |
| 20260905005516 | 69 | 23 | 0.9 | 3.5 | 0.00 | 0.00 | 0.00 | 32 | 1026.0 |
| 20260905004535 | 70 | 68 | 0.9 | 5.2 | 0.00 | 0.00 | 0.00 | 31 | 1026.0 |
| 20260905003515 | 70 | 23 | 0.9 | 1.7 | 0.00 | 0.00 | 0.00 | 30 | 1026.4 |
| 20260905002516 | 71 | 23 | 0.9 | 3.5 | 0.00 | 0.00 | 0.00 | 31 | 1026.5 |
| 20260905001515 | 71 | 68 | 0.9 | 2.6 | 0.00 | 0.00 | 0.00 | 30 | 1026.2 |
| 20260905000515 | 72 | 45 | 0.9 | 3.5 | 0.00 | 0.00 | 0.00 | 29 | 1026.2 |
| 20260904235515 | 72 | 68 | 0.9 | 3.5 | 0.00 | 0.00 | 0.00 | 29 | 1026.6 |
| 20260904234555 | 73 | 90 | 0.9 | 4.3 | 0.00 | 0.00 | 0.00 | 28 | 1026.5 |
| 20260904233515 | 74 | 23 | 0.9 | 3.5 | 0.00 | 0.00 | 0.00 | 28 | 1027.0 |
| 20260904232515 | 72 | 45 | 0.9 | 4.3 | 0.00 | 0.00 | 0.00 | 29 | 1026.4 |
| 20260904231515 | 72 | 23 | 0.9 | 4.3 | 0.00 | 0.00 | 0.00 | 29 | 1026.3 |
| 20260904230537 | 72 | 0.0 | 2.6 | 0.00 | 0.00 | 0.00 | 29 | 1026.2 | |
| 20260904225537 | 73 | 0.0 | 2.6 | 0.00 | 0.00 | 0.00 | 28 | 1026.2 | |
| 20260904224517 | 73 | 23 | 0.9 | 4.3 | 0.00 | 0.00 | 0.00 | 29 | 1026.3 |
| 20260904223517 | 73 | 90 | 1.7 | 4.3 | 0.00 | 0.00 | 0.00 | 28 | 1026.8 |
| 20260904222517 | 71 | 0.0 | 1.7 | 0.00 | 0.00 | 0.00 | 30 | 1026.5 | |
| 20260904221517 | 71 | 45 | 0.9 | 3.5 | 0.00 | 0.00 | 0.00 | 30 | 1026.3 |
| 20260904220537 | 72 | 68 | 1.7 | 7.0 | 0.00 | 0.00 | 0.00 | 28 | 1026.2 |
| 20260904215517 | 72 | 68 | 0.9 | 2.6 | 0.00 | 0.00 | 0.00 | 29 | 1026.1 |
| 20260904214557 | 72 | 68 | 1.7 | 7.0 | 0.00 | 0.00 | 0.00 | 28 | 1026.1 |
| 20260904213517 | 73 | 68 | 0.9 | 4.3 | 0.00 | 0.00 | 0.00 | 28 | 1026.8 |
| 20260904212517 | 73 | 113 | 1.7 | 5.2 | 0.00 | 0.00 | 0.00 | 27 | 1026.8 |
| 20260904211517 | 74 | 45 | 0.9 | 2.6 | 0.00 | 0.00 | 0.00 | 26 | 1026.8 |
| 20260904210517 | 75 | 45 | 1.7 | 7.8 | 0.00 | 0.00 | 0.00 | 26 | 1026.7 |
| 20260904205517 | 76 | 90 | 1.7 | 6.1 | 0.00 | 0.00 | 0.00 | 25 | 1027.4 |
| 20260904204517 | 76 | 23 | 1.7 | 5.2 | 0.00 | 0.00 | 0.00 | 25 | 1027.5 |
| 20260904203517 | 75 | 23 | 1.7 | 6.1 | 0.00 | 0.00 | 0.00 | 25 | 1027.5 |
| 20260904202517 | 76 | 68 | 0.9 | 5.2 | 0.00 | 0.00 | 0.00 | 25 | 1027.6 |
| 20260904201517 | 78 | 0 | 0.9 | 3.5 | 0.00 | 0.00 | 0.00 | 24 | 1028.2 |
| 20260904200516 | 79 | 23 | 3.5 | 10.4 | 0.00 | 0.00 | 0.00 | 22 | 1029.4 |
| 20260904195517 | 79 | 45 | 0.9 | 5.2 | 0.00 | 0.00 | 0.00 | 23 | 1029.5 |
| 20260904194517 | 79 | 23 | 2.6 | 7.8 | 0.00 | 0.00 | 0.00 | 23 | 1029.6 |